Flag for Canada Weather past 2 weeks in Sarnia, Ontario, Canada

Now
75 °F

Scattered clouds.


Feels Like: 78 °F
Forecast: 51 / 77 °F
Wind: 12 mph from Southwest

Location: Sarnia Airport

Current Time: Jul 25, 2014 at 2:19:30 PM

Latest Report: Jul 25, 2014 at 1:00 PM


Visibility: 9 mi

Pressure: 30.03 "Hg

Humidity: 41%

Dew point: 50 °F

Location of SarniaLocation

Historic Weather in Sarnia — Graph

°F

Sarnia temperature yesterday

Maximum temperature yesterday: 70 °F (at 4:00 PM)
Minimum temperature yesterday: 57 °F (at 11:00 PM)
Average temperature yesterday: 64 °F

Past Weeks' High & Low Weather Summary

 TemperatureHumidityPressure
High84 °F (Jul 22, 1:00 PM)100% (Jul 11, 5:00 AM)30.26 "Hg (Jul 11, 5:00 AM)
Low50 °F (Jul 25, 4:00 AM)41% (Jul 25, 1:00 PM)29.68 "Hg (Jul 15, 5:00 AM)
Average67 °F74%30.02 "Hg
* Reported Jul 10 1:00 PM — Jul 25 1:00 PM, Sarnia, Weather by CustomWeather, © 2014

Note: Actual official high and low records may vary slightly from our data, if they occured in-between our weather recording intervals... More about our weather records

Advertising

Sarnia weather history for July 11, 2014

 ConditionsComfort  
Time TempWeatherWind HumidityBarometerVisibility
12:00 AM
Jul 11
61 °FClear.2 mph83%30.20 "Hg9 mi
1:00 AM59 °FClear.2 mph88%30.21 "Hg9 mi
2:00 AM57 °FClear.No wind88%30.21 "Hg9 mi
3:00 AM55 °FClear.No wind94%30.21 "Hg9 mi
4:00 AM55 °FClear.No wind94%30.21 "Hg9 mi
5:00 AM54 °FClear.No wind100%30.22 "Hg9 mi
6:00 AM54 °FClear.No wind94%30.23 "Hg9 mi
7:00 AM57 °FSunny.No wind88%30.24 "Hg9 mi
8:00 AM63 °FSunny.No wind83%30.24 "Hg9 mi
9:00 AM66 °FSunny.3 mph83%30.24 "Hg9 mi
10:00 AM68 °FSunny.3 mph73%30.24 "Hg9 mi
11:00 AM72 °FSunny.5 mph65%30.25 "Hg9 mi
12:00 PM72 °FSunny.5 mph61%30.26 "Hg9 mi
1:00 PM73 °FSunny.9 mph61%30.23 "Hg9 mi
2:00 PM75 °FSunny.9 mph50%30.22 "Hg9 mi
3:00 PM75 °FScattered clouds.8 mph57%30.21 "Hg9 mi
4:00 PM75 °FScattered clouds.7 mph57%30.20 "Hg9 mi
5:00 PM75 °FPassing clouds.6 mph57%30.18 "Hg9 mi
6:00 PM75 °FSunny.2 mph57%30.17 "Hg9 mi
7:00 PM77 °FSunny.7 mph44%30.15 "Hg9 mi
8:00 PM75 °FSunny.3 mph54%30.16 "Hg9 mi
9:00 PM73 °FPartly sunny.6 mph61%30.16 "Hg9 mi
10:00 PM70 °FMostly cloudy.6 mph69%30.17 "Hg9 mi
11:00 PM68 °FMostly cloudy.5 mph69%30.17 "Hg9 mi
Weather by CustomWeather, © 2014

See weather overviewHow to use our weather pages